Location: Recife
(8.0585°S, 34.8848°W)
Time: 10:39:51
(UTC-03:00)

Explorer 7 - Pass Details

Date: 23 April 2026
Orbit: 427 x 536 km, 50.2° (Epoch: 14 May)

Event Time Altitude Azimuth Distance (km) Brightness Sun altitude
Rises 21:49:05 0° 330° (NNW) 2,545 - -67.7°
Reaches altitude 10° 21:51:19 10° 334° (NNW) 1,648 - -68.2°
Maximum altitude 21:54:58 56° 53° (NE) 563 - -69.1°
Drops below altitude 10° 21:58:30 10° 132° (SE) 1,596 - -69.9°
Sets 22:00:38 0° 136° (SE) 2,454 - -70.5°
